Weather reports worldwide

Advertisment
Reus, Spain (8175): temperature & dewpoint: 17.10.2020 01:00:00 - 23.10.2020 01:00:00 (CEST)Reus, Spain (8175): wind speed: 17.10.2020 01:00:00 - 23.10.2020 01:00:00 (CEST)Reus, Spain (8175): wind direction: 17.10.2020 01:00:00 - 23.10.2020 01:00:00 (CEST)Reus, Spain (8175): reduced air pressure: 17.10.2020 01:00:00 - 23.10.2020 01:00:00 (CEST)Reus, Spain (8175): visibility: 17.10.2020 01:00:00 - 23.10.2020 01:00:00 (CEST)
Date & Time tt [°C] td [°C] ff [km/h] ff [kn] dd ppp [hPa] vv [km]
23.10.2020 01:00:00 16,6 15,5 9 5 ENE 1016,0 17
23.10.2020 00:00:00 16,8 15,3 8 4 NE 1015,7 15
22.10.2020 23:00:00 17,0 15,2 8 4 N 1015,6 23
22.10.2020 22:00:00 16,9 15,4 5 3 NNE 1015,7 19
22.10.2020 21:00:00 17,4 15,4 9 5 N 1015,5 18
22.10.2020 20:00:00 17,7 16,2 11 6 NNE 1015,4 8
22.10.2020 19:00:00 18,4 17,0 8 4 NE 1015,1 8
22.10.2020 18:00:00 19,5 17,6 0 0 N 1015,1 7
22.10.2020 17:00:00 20,4 15,3 0 0 N 1013,9 9
22.10.2020 16:00:00 21,9 14,3 0 0 N 1014,2 16
22.10.2020 15:00:00 21,6 15,2 8 4 E 1013,8 12
22.10.2020 14:00:00 21,6 14,3 8 4 ENE 1014,5 15
22.10.2020 13:00:00 21,3 14,3 8 4 N 1015,2 13
22.10.2020 12:00:00 20,6 14,7 13 7 NNE 1015,0 9
22.10.2020 11:00:00 19,1 15,2 13 7 NNE 1015,0 15
22.10.2020 10:00:00 18,8 16,2 15 8 NNE 1014,8 13
22.10.2020 09:00:00 18,3 16,5 8 4 NNE 1015,0 13
22.10.2020 08:00:00 18,3 16,5 13 7 N 1014,0 9
22.10.2020 07:00:00 18,0 16,2 11 6 N 1014,4 14
22.10.2020 06:00:00 17,8 16,1 11 6 NNE 1014,1 15
22.10.2020 05:00:00 17,9 15,9 11 6 N 1014,7 15
22.10.2020 04:00:00 17,4 16,3 11 6 NNE 1014,9 10
22.10.2020 03:00:00 17,7 16,0 11 6 N 1014,9 9
22.10.2020 02:00:00 17,3 16,0 13 7 N 1014,7 7
22.10.2020 01:00:00 17,1 15,8 8 4 N 1014,8 10
22.10.2020 00:00:00 15,8 14,8 11 6 NE 1014,6 9
21.10.2020 23:00:00 17,1 15,5 8 4 NE 1014,0 9
21.10.2020 22:00:00 18,0 16,7 13 7 NNE 1013,4 7
21.10.2020 21:00:00 17,8 16,3 8 4 N 1013,2 9
21.10.2020 20:00:00 18,5 16,8 5 3 NW 1012,9 10
21.10.2020 19:00:00 19,3 17,3 9 5 SW 1012,9 11
21.10.2020 18:00:00 21,1 17,6 16 9 S 1012,1 8
21.10.2020 17:00:00 22,5 16,9 15 8 SE 1011,1 12
21.10.2020 16:00:00 24,6 16,1 18 10 E 1010,3 14
21.10.2020 15:00:00 26,1 16,0 21 11 ESE 1010,4 11
21.10.2020 14:00:00 25,9 15,3 9 5 ENE 1010,6 12
21.10.2020 13:00:00 24,1 16,9 15 8 NE 1011,5 11
21.10.2020 12:00:00 21,6 16,4 13 7 NNE 1011,5 10
21.10.2020 11:00:00 20,6 16,0 11 6 NNE 1011,3 12
21.10.2020 10:00:00 19,6 15,8 13 7 NNE 1010,8 11
21.10.2020 09:00:00 19,2 15,5 15 8 NNE 1009,9 12
21.10.2020 08:00:00 18,8 15,5 13 7 N 1009,8 20
21.10.2020 07:00:00 18,8 15,3 15 8 NNE 1009,3 16
21.10.2020 06:00:00 18,8 15,7 16 9 N 1009,8 19
21.10.2020 05:00:00 18,2 16,0 13 7 NNE 1010,2 14
21.10.2020 04:00:00 17,9 16,4 13 7 N 1010,8 15
21.10.2020 03:00:00 17,4 16,6 13 7 NE 1011,0 12
21.10.2020 02:00:00 17,1 16,5 13 7 ENE 1011,4 10
21.10.2020 01:00:00 17,4 16,6 9 5 NE 1012,2 10
21.10.2020 00:00:00 18,9 17,6 13 7 E 1012,6 11
20.10.2020 23:00:00 18,9 17,4 15 8 E 1012,8 12
20.10.2020 22:00:00 18,1 17,1 13 7 ENE 1013,3 14
20.10.2020 21:00:00 17,7 16,5 15 8 ENE 1013,7 13
20.10.2020 20:00:00 17,9 16,1 9 5 E 1014,4 15
20.10.2020 19:00:00 18,4 15,8 13 7 E 1014,3 20
20.10.2020 18:00:00 18,8 15,3 15 8 E 1014,9 30
20.10.2020 17:00:00 19,2 15,1 15 8 E 1015,9 25
20.10.2020 16:00:00 19,6 14,5 15 8 E 1016,7 29
20.10.2020 15:00:00 19,6 13,5 16 9 E 1017,0 30
20.10.2020 14:00:00 19,7 13,6 13 7 E 1017,9 25
20.10.2020 13:00:00 19,7 13,8 13 7 E 1018,6 30
20.10.2020 12:00:00 20,3 13,5 13 7 ESE 1018,5 30
20.10.2020 11:00:00 19,2 14,0 15 8 ESE 1018,4 25
20.10.2020 10:00:00 18,5 14,4 11 6 SE 1018,6 30
20.10.2020 09:00:00 18,6 14,9 18 10 SSE 1018,2 30
20.10.2020 08:00:00 18,1 15,4 13 7 SSE 1017,9 25
20.10.2020 07:00:00 17,9 15,0 11 6 S 1018,2 30
20.10.2020 06:00:00 17,2 14,7 8 4 S 1018,3 30
20.10.2020 05:00:00 17,6 14,5 11 6 S 1018,2 30
20.10.2020 04:00:00 17,9 14,6 11 6 S 1018,6 30
20.10.2020 03:00:00 18,0 14,7 9 5 S 1019,1 30
20.10.2020 02:00:00 18,0 14,7 15 8 S 1019,3 30
20.10.2020 01:00:00 17,5 14,9 9 5 S 1019,5 30
20.10.2020 00:00:00 16,9 14,2 0 0 N 1020,1 30
19.10.2020 23:00:00 15,3 12,8 0 0 N 1020,0 30
19.10.2020 22:00:00 15,9 12,8 4 2 SSW 1020,2 30
19.10.2020 21:00:00 15,6 12,3 8 4 S 1020,3 30
19.10.2020 20:00:00 16,7 12,4 8 4 S 1020,4 30
19.10.2020 19:00:00 18,0 12,7 13 7 S 1019,9 30
19.10.2020 18:00:00 19,0 13,0 18 10 S 1019,8 30
19.10.2020 17:00:00 21,3 13,4 21 11 S 1019,8 30
19.10.2020 16:00:00 22,4 12,8 18 10 SSW 1020,2 30
19.10.2020 15:00:00 21,7 11,6 18 10 S 1020,4 30
19.10.2020 14:00:00 21,5 13,1 16 9 S 1021,3 30
19.10.2020 13:00:00 19,8 13,0 18 10 S 1022,1 30
19.10.2020 12:00:00 19,0 13,4 9 5 ESE 1022,3 30
19.10.2020 11:00:00 17,5 12,6 5 3 ENE 1022,3 28
19.10.2020 10:00:00 16,2 12,0 9 5 N 1022,2 30
19.10.2020 09:00:00 14,1 11,1 9 5 N 1021,6 30
19.10.2020 08:00:00 13,1 10,3 13 7 N 1021,4 30
19.10.2020 07:00:00 12,5 10,2 13 7 NNE 1021,4 30
19.10.2020 06:00:00 11,7 9,4 13 7 NNE 1021,5 30
19.10.2020 05:00:00 11,7 9,4 15 8 N 1021,5 30
19.10.2020 04:00:00 11,4 9,3 13 7 NNE 1021,9 30
19.10.2020 03:00:00 10,8 8,7 11 6 NNE 1022,3 30
19.10.2020 02:00:00 10,6 8,9 8 4 NNE 1022,4 30
19.10.2020 01:00:00 12,6 9,4 11 6 N 1022,3 30
19.10.2020 00:00:00 12,1 9,5 13 7 N 1022,6 30
18.10.2020 23:00:00 12,3 8,9 13 7 N 1022,5 30
18.10.2020 22:00:00 12,3 9,6 9 5 N 1022,3 30
18.10.2020 21:00:00 13,1 9,3 11 6 N 1022,1 18
18.10.2020 20:00:00 14,4 9,2 0 0 N 1021,7 30
18.10.2020 19:00:00 16,4 10,7 5 3 SSW 1021,1 30
18.10.2020 18:00:00 18,2 9,0 9 5 SSW 1020,9 30
18.10.2020 17:00:00 20,0 8,8 9 5 SSE 1020,9 30
18.10.2020 16:00:00 20,8 6,4 11 6 SSE 1021,0 30
18.10.2020 15:00:00 20,8 6,7 9 5 SSE 1021,0 30
18.10.2020 14:00:00 20,3 7,0 15 8 SE 1021,6 30
18.10.2020 13:00:00 20,4 5,1 11 6 SE 1021,8 30
18.10.2020 12:00:00 19,8 4,1 5 3 SSE 1022,0 30
18.10.2020 11:00:00 17,3 3,7 8 4 NE 1022,0 30
18.10.2020 10:00:00 12,7 3,4 11 6 NE 1021,7 30
18.10.2020 09:00:00 8,3 3,1 9 5 NE 1021,2 30
18.10.2020 08:00:00 5,9 2,4 9 5 NNE 1020,8 30
18.10.2020 07:00:00 6,1 2,2 11 6 NNE 1020,4 30
18.10.2020 06:00:00 6,6 2,3 9 5 N 1020,2 30
18.10.2020 05:00:00 6,9 2,4 13 7 NNE 1019,9 30
18.10.2020 04:00:00 7,3 2,2 5 3 NNE 1020,0 30
18.10.2020 03:00:00 7,7 2,4 8 4 NNE 1020,1 30
18.10.2020 02:00:00 7,6 2,3 5 3 NNE 1019,9 30
18.10.2020 01:00:00 9,4 2,3 4 2 N 1019,6 30
18.10.2020 00:00:00 10,9 1,9 15 8 N 1019,4 30
17.10.2020 23:00:00 11,3 2,3 13 7 NNE 1018,9 30
17.10.2020 22:00:00 10,1 4,2 13 7 NNE 1018,6 30
17.10.2020 21:00:00 12,6 7,7 4 2 N 1018,3 30
17.10.2020 20:00:00 14,1 8,3 15 8 W 1017,8 30
17.10.2020 19:00:00 16,5 7,0 15 8 SW 1016,9 30
17.10.2020 18:00:00 19,5 1,4 21 11 WSW 1015,9 30
17.10.2020 17:00:00 20,9 2,6 9 5 NE 1015,6 30
17.10.2020 16:00:00 20,9 2,5 8 4 N 1015,6 30
17.10.2020 15:00:00 20,7 2,7 9 5 ENE 1015,7 30
17.10.2020 14:00:00 20,3 2,9 8 4 W 1016,3 30
17.10.2020 13:00:00 19,4 3,5 9 5 E 1017,0 30
17.10.2020 12:00:00 17,8 3,3 9 5 SE 1017,2 30
17.10.2020 11:00:00 15,8 3,0 4 2 SSE 1017,4 30
17.10.2020 10:00:00 11,7 3,2 5 3 ENE 1017,5 27
17.10.2020 09:00:00 6,9 2,1 5 3 NNE 1017,3 30
17.10.2020 08:00:00 3,6 0,3 4 2 NNW 1017,2 30
17.10.2020 07:00:00 4,4 0,6 8 4 NNW 1017,1 30
17.10.2020 06:00:00 3,9 0,2 5 3 NE 1017,0 30
17.10.2020 05:00:00 4,9 0,5 5 3 NNW 1017,0 30
17.10.2020 04:00:00 4,7 1,0 9 5 NE 1017,1 30
17.10.2020 03:00:00 6,2 1,1 4 2 N 1017,4 30
17.10.2020 02:00:00 6,6 1,3 11 6 NNE 1017,8 30
17.10.2020 01:00:00 7,2 1,5 11 6 N 1018,1 30

tt = temperature
td = dewpoint
ff = wind speed
dd = wind direction
ppp = reduced air pressure
vv = visibility

Next stations